STARLINK-33791, 63594

Orbit data source: Space-Track

STARLINK-33791, 63594 is a payload satellite owned by SpaceX/Seattle (US) in LEO that was launched on Mon, 14 Apr 2025 UTC via an FALCON 9 launch vehicle from the Air Force Eastern Test Range (AFETR). Payload-class satellites include a variety of spacecraft equipped with specific instruments for various scientific and technological missions. These include communications satellites like Starlink; space stations such as the ISS; scientific satellites like the Hubble; Earth observation satellites from companies like Planet Labs, Umbra, and HawkEye 360; GPS; miniature CubeSats for education and research; and military/defense satellites.

Loading next visibility...
Identifier
63594, 2025-076AB
Orbit
LEO
Last TLE update
9 hours ago
Origin
Manufacturer
SpaceX/Seattle
Mission
Operational Commercial Communications
Bus & Motor
STARLINK V2MO, Unknown motor
Mass
575 kg wet, ~530 kg dry
Launch date (UTC)
2025-04-14 (3 months ago)
Launch vehicle
FALCON 9
Launch site
Air Force Eastern Test Range (AFETR)
Object type
Payload
Rocket body
Debris
Shape & HBR
Box + 1 Pan, 29 m
Radar Cross Section
41.120 m², Large (>1 m²)

Expand to show TLE details & history

TLE from 9 hours ago
0 STARLINK-33791
1 63594U 25076AB  25182.05354830  .00005476  00000-0  20833-3 0  9994
2 63594  43.0003 302.9922 0000585  16.7380 343.3491 15.27584635 13118
Epoch: 2025-07-01T01:17Z
TLE epoch observation values (Epoch: 2025-07-01T01:17:06.573Z)
Latitude
0.00001°
Longitude
4.3603°
Altitude
482.426 km
Speed
7.626 km/s
True Right ascension
20h 11m 58s
True Declination
0° 00' 00"
Sunlit
Object was in full shadow at epoch
Visualization orbit readout
Latitude
-36.1048°
Longitude
-48.85481°
Altitude
493.391 km
Speed
7.619 km/s
Apparent Right ascension
13h 38m 46s
Apparent Declination
-49° 48' 49"
Sunlit
Object is in full shadow
Visualization observer readout
Local Sidereal Time
22:04:56
Azimuth
236.788° WSW
Elevation
-51.71°
Doppler factor
1
Orbital elements
Apogee altitude
485.382 km
Perigee altitude
484.579 km
Semi-major axis
6,863.117 km
Eccentricity
0.00006
Inclination
43.0003°
RAAN
302.9922°
Arg. of periapsis
16.738°
True anomaly
Unknown
Mean anomaly
343.3491°
Eccentric anomaly
Unknown
Mean motion
3.81734 °/min
Orbital period
94.31 mins
BSTAR
0.00020833
Loading maneuver chart data...
Loading SW <> Apogee altitude chart data...
Loading historical data...
Loading historical data...
Loading historical data...
Loading historical data...
Loading historical data...
Loading historical data...
Loading historical data...

STARLINK-33791 Visibility forecast

Observer location: undefined°, undefined°

Span
Click to sort rows by Start time (UTC) header in descending order
Start Az.
Max El. time (UTC)
Max El. Az.
Max El.
End time (UTC)
End Az.
5 mins2025-07-01 10:53:29.795Z189.536° SSW2025-07-01 10:55:29.795Z151.486° SSE20.309°2025-07-01 10:58:29.795Z95.403° ESE
5 mins2025-07-01 12:32:29.795Z249.617° W2025-07-01 12:34:29.795Z87.508° E44.819°2025-07-01 12:37:29.795Z72.157° E
5 mins2025-07-01 14:11:29.795Z291.48° WNW2025-07-01 14:13:29.795Z358.046° N38.027°2025-07-01 14:16:29.795Z73.311° E
5 mins2025-07-01 15:50:29.795Z291.031° WNW2025-07-01 15:52:29.795Z332.609° NNW44.243°2025-07-01 15:55:29.795Z103.326° ESE
5 mins2025-07-01 17:29:29.795Z257.213° W2025-07-01 17:31:29.795Z209.532° SW24.49°2025-07-01 17:34:29.795Z154.349° SSE
|